Flag for U.S.A. Weather past 2 weeks in Pocatello, Idaho, U.S.A.

Now
74 °F

Clear.


Feels Like: 77 °F
Forecast: 64 / 97 °F
Wind: 8 mph from Southwest

Location: Pocatello Regional Airport

Current Time: Jul 4, 2015 at 1:19:20 AM

Latest Report: Jul 4, 2015 at 12:53 AM


Visibility: 10 mi

Pressure: 29.75 "Hg (25.44 "Hg at 1357m altitude)

Humidity: 40%

Dew point: 48 °F

Location of PocatelloLocation

Historic Weather in Pocatello — Graph

°F

Pocatello temperature yesterday

Maximum temperature yesterday: 97 °F (at 3:53 PM)
Minimum temperature yesterday: 58 °F (at 4:53 AM)
Average temperature yesterday: 80 °F

Past Weeks' High & Low Weather Summary

 TemperatureHumidityPressure
High101 °F (Jun 28, 5:53 PM)90% (Jun 27, 5:53 AM)30.13 "Hg (Jun 27, 5:53 AM)
Low49 °F (Jun 20, 3:53 AM)13% (Jun 21, 3:53 PM)29.71 "Hg (Jul 3, 7:53 PM)
Average76 °F39%29.91 "Hg
* Reported Jun 18 11:53 PM — Jul 3 11:53 PM, Pocatello, Weather by CustomWeather, © 2015

Note: Actual official high and low records may vary slightly from our data, if they occured in-between our weather recording intervals... More about our weather records

Advertising

Pocatello weather history for previous 24 hours

 ConditionsComfort  
Time TempWeatherWind HumidityBarometerVisibility
11:53 PM
Fri, Jul 3
76 °FClear.10 mph37%29.75 "Hg10 mi
10:53 PM81 °FSunny.18 mph28%29.74 "Hg10 mi
9:53 PM82 °FSunny.15 mph29%29.72 "Hg10 mi
8:53 PM83 °FSunny.12 mph36%29.72 "Hg10 mi
7:53 PM90 °FSunny.14 mph25%29.71 "Hg10 mi
6:53 PM94 °FSunny.15 mph20%29.72 "Hg10 mi
5:53 PM96 °FSunny.18 mph16%29.74 "Hg10 mi
4:53 PM97 °FSunny.18 mph14%29.76 "Hg10 mi
3:53 PM97 °FSunny.17 mph14%29.79 "Hg10 mi
2:53 PM96 °FSunny.16 mph17%29.80 "Hg10 mi
1:53 PM94 °FSunny.12 mph19%29.83 "Hg10 mi
12:53 PM91 °FSunny.13 mph22%29.85 "Hg10 mi
11:53 AM86 °FSunny.13 mph28%29.87 "Hg10 mi
10:53 AM84 °FSunny.14 mph29%29.88 "Hg10 mi
9:53 AM81 °FSunny.10 mph28%29.89 "Hg10 mi
8:53 AM74 °FSunny.10 mph48%29.89 "Hg10 mi
7:53 AM68 °FClear.3 mph49%29.88 "Hg10 mi
6:53 AM60 °FClear.3 mph60%29.88 "Hg10 mi
5:53 AM59 °FClear.3 mph62%29.86 "Hg10 mi
4:53 AM58 °FClear.6 mph65%29.86 "Hg10 mi
3:53 AM61 °FClear.7 mph52%29.85 "Hg10 mi
2:53 AM66 °FClear.6 mph45%29.83 "Hg10 mi
1:53 AM70 °FClear.5 mph37%29.82 "Hg10 mi
Weather by CustomWeather, © 2015

See weather overviewHow to use our weather pages